Regional Weather Roundup
Issued by NWS Northern Indiana

Home | Current Version | Previous Version | Graphics & Text | Print | Product List | Glossary On
Versions: 1 2 3 4 5 6 7 8 9 10 11 12 13 14 15 16 17 18 19 20 21 22 23 24 25 26 27 28 29 30 31 32 33 34 35 36 37 38 39 40 41 42 43 44 45 46 47 48 49 50
000
ASUS43 KIWX 271000
RWRIWX

KIWX WEATHER ROUNDUP
NATIONAL WEATHER SERVICE NORTHERN INDIANA
500 AM EST TUE JAN 27 2015

NOTE: "FAIR" INDICATES FEW OR NO CLOUDS BELOW 12,000 FEET WITH NO
SIGNIFICANT WEATHER AND/OR OBSTRUCTIONS TO VISIBILITY.

* THESE STATIONS ARE NOT UNDER NWS QUALITY CONTROL. THEY ALSO MAY NOT
  REPORT WEATHER SUCH AS PRECIPITATION OR FOG.

INZ001>027-271100-
NORTHERN INDIANA

CITY           SKY/WX    TMP DP  RH WIND       PRES   REMARKS
SOUTH BEND     CLOUDY    23  14  68 NE3       29.98R
GOSHEN         CLOUDY    21  14  74 E5        29.96S WCI  15
ANGOLA*        CLOUDY    16   9  73 E3        29.96S
FORT WAYNE     CLOUDY    18  12  77 NE6       29.98R WCI  10
PERU/GRISSOM   FLURRIES  22  17  83 E5        29.94S WCI  15

$$
INZ028>050-271100-
CENTRAL INDIANA

CITY           SKY/WX    TMP DP  RH WIND       PRES   REMARKS
LAFAYETTE      CLOUDY    26  25  96 NE7       29.95R FOG     WCI  18
KOKOMO*        CLOUDY    21  18  86 E7        29.95R WCI  13
MUNCIE*        CLOUDY    20  14  77 E3        29.94R
INDIANAPOLIS   LGT SNOW  24  24 100 NE5       29.92R FOG     WCI  18

$$
MIZ043>046-050>051-056>058-064>065-071>073-077>080-271100-
SOUTHWEST LOWER MICHIGAN

CITY           SKY/WX    TMP DP  RH WIND       PRES   REMARKS
BATTLE CREEK   CLOUDY    20  10  65 NE6       29.99R WCI  12
BENTON HARBOR  CLOUDY    22  10  60 NE5       30.00R WCI  16
COLDWATER*     CLOUDY    18  11  75 E5        29.97R WCI  11
HILLSDALE*     CLOUDY    17  11  79 CALM      29.95R
HOLLAND        CLOUDY    21  12  68 NE5       30.02R WCI  15
GRAND RAPIDS   CLOUDY    18  11  74 NE8       30.02R WCI   8
KALAMAZOO      CLOUDY    20  10  65 NE6       29.99R WCI  12
STURGIS*       CLOUDY    19  12  73 CALM      29.96R
THREE RIVERS*  CLOUDY    21  12  69 NE5       29.98R WCI  15

$$
OHZ001>008-015>018-024>025-271100-
NORTHWEST OHIO

CITY           SKY/WX    TMP DP  RH WIND       PRES   REMARKS
DEFIANCE       CLOUDY    15  10  80 N3        29.99R
FINDLAY        MOCLDY     4   0  83 CALM      29.96R
TOLEDO EXPRESS CLOUDY    13   9  84 N5        29.98R WCI   5
TOLEDO METCALF CLEAR     13   7  77 N6        29.99R WCI   4
LIMA           PTCLDY     8   3  80 CALM      29.95R HAZE

$$
AND FOR LAKE MICHIGAN COASTAL AND OPEN LAKE BUOY OBSERVATIONS

STATION/POSITION TEMP    WIND        PRES    VSBY  WAVE
                 AIR SEA DIR/SP/G                  HT/PER
                 (F)     (DEG/KT/KT) (MB)    (MI)  (FT/S)
CALUMET HARBOR    26      70/  2/  4   N/A
MICHIGAN CITY     23     110/  7/  8   N/A
SAINT JOSEPH      23      10/  2/  5 1016.6R

$$
&&


USA.gov is the U.S. government's official web portal to all federal, state and local government web resources and services.